Weather Roundup
Issued by NWS

Home | Current Version | Previous Version | Text Only | Print | Product List | Glossary On
Versions: 1 2 3 4 5 6 7 8 9 10 11 12 13 14 15 16 17 18 19 20 21 22 23 24 25 26 27 28 29 30 31 32 33 34 35 36 37 38 39 40 41 42 43 44 45 46 47 48 49 50
945
NZUS93 KARX 011710
HRRWXR

CURRENT HOURLY OBSERVATIONS ACROSS
MUCH OF THE UPPER MISSISSIPPI VALLEY
NATIONAL WEATHER SERVICE LA CROSSE WI
1100 AM CST WED MAR 01 2017


...SOUTHEAST MINNESOTA...


CITY           SKY/WX    TMP DP  RH WIND       PRES   REMARKS
ROCHESTER      CLOUDY    27  23  85 NW23      29.81R WCI  12
ROCHESTER/MAYO CLOUDY    27  26  94 NW18G25   29.81R WCI  14
WINONA         LGT SNOW  30  28  93 NW15      29.79R WCI  19
AUSTIN         CLOUDY    28  23  80 NW16G25   29.84R WCI  17
ALBERT LEA     CLOUDY    30  27  86 NW16      29.86R WCI  19
DODGE CENTER   NOT AVBL
PRESTON        CLOUDY    27  23  85 NW17G24   29.80R FOG     WCI  14
OWATONNA       NOT AVBL
FARIBAULT      CLOUDY    30  25  80 NW15G21   29.88R WCI  19
$$

...ELSEWHERE IN MINNESOTA...


CITY           SKY/WX    TMP DP  RH WIND       PRES   REMARKS
MINNEAPOLIS    PTSUNNY   30  21  69 N16       29.88R WCI  19
INTNL FALLS    MOSUNNY   15  -1  49 N6        29.94S WCI   6
DULUTH         CLOUDY    20   9  62 NW3       29.85R
RED WING       CLOUDY    28  21  74 N9G20     29.84R WCI  20
REDWOOD FALLS  MOSUNNY   33  21  61 NW14G24   29.95R WCI  23
MANKATO          N/A     32  25  75 NW16      29.91R WCI  21
WORTHINGTON    PTSUNNY   33  26  75 NW16      29.96R WCI  23
FAIRMONT       PTSUNNY   32  26  78 NW17G25   29.93R WCI  21
$$

...SOUTHWEST WISCONSIN...


CITY           SKY/WX    TMP DP  RH WIND       PRES   REMARKS
LA CROSSE      SNOW      30  27  88 NW18      29.76R VSB 1/2 WCI  18
PRAIRIE DU CHI LGT SNOW  32  31  96 NW14G21   29.74R WCI  22
BOSCOBEL       LGT SNOW  33  29  85 NW9       29.72R VSB 1   WCI  25
LONE ROCK      LGT SNOW  33  27  78 N12G21    29.68R WCI  24
PLATTEVILLE    CLOUDY    33  33 100 NW15      29.67R WCI  23
FORT MC COY    LGT SNOW  28  27  94 NW12G18   29.73R WCI  18
CAMP DOUGLAS   LGT SNOW  27  27 100 NW16G23   29.68R VSB 3/4 WCI  14
MAUSTON-NEW LI SNOW      28  27  93 N14       29.66R VSB 1/2 WCI  17
VIROQUA        CLOUDY    28  27  94 NW12      29.69R VSB 1   WCI  18
WIS DELLS      SNOW      29  27  94 N10       29.63R VSB 1/2 WCI  20
$$

...ELSEWHERE IN WISCONSIN...


CITY           SKY/WX    TMP DP  RH WIND       PRES   REMARKS
MILWAUKEE      HVY SNOW  33  31  92 NW13      29.55R VSB 1/4 WCI  24
MADISON        LGT SNOW  32  29  88 NW10G20   29.61R FOG     WCI  24
GREEN BAY      SNOW      27  26  96 N15G22    29.58R VSB 1/2 WCI  15
EAU CLAIRE     CLOUDY    26  21  81 N13       29.79R HAZE    WCI  15
BLACK RVR FLS  LGT SNOW  28  28  97 NW8       29.73R VSB 1   WCI  20
MEDFORD        LGT SNOW  23  19  86 N17       29.68R WCI   9
WAUSAU         LGT SNOW  23  20  88 N14G20    29.64R VSB 3/4 WCI  11
WIS RAPIDS     SNOW      26  24  92 N9        29.67R VSB 1/4 WCI  17
MARSHFIELD     LGT SNOW  25  20  81 N15       29.66R VSB 3/4 WCI  13
RICE LAKE      CLOUDY    26  20  80 N15       29.83R WCI  13
$$

...NORTHEAST IOWA...


CITY           SKY/WX    TMP DP  RH WIND       PRES   REMARKS
WATERLOO       CLOUDY    32  27  81 NW22G32   29.83R WCI  19
DUBUQUE        CLOUDY    33  30  88 NW21      29.71R WCI  21
DECORAH        LGT SNOW  28  27  93 NW16G26   29.76R WCI  17
MASON CITY     PTSUNNY   31  26  82 NW24G30   29.89R WCI  17
CHARLES CITY   MIX PCPN  30  30 100 NW23      29.84R WCI  17
OELWEIN        LGT SNOW  30  30 100 NW25G31   29.79R WCI  16
$$

...ELSEWHERE IN IOWA...


CITY           SKY/WX    TMP DP  RH WIND       PRES   REMARKS
DES MOINES     PTSUNNY   38  31  76 NW18G30   29.94R WCI  28
IOWA CITY      CLOUDY    37  28  70 NW21G38   29.83R WCI  26
FORT DODGE     CLOUDY    34  27  75 NW12G21   29.94R WCI  25
MARSHALLTOWN   CLOUDY    33  29  85 NW30G37   29.88R WCI  19
CEDAR RAPIDS   CLOUDY    33  30  88 NW25G37   29.79R WCI  20
$$

...NORTHERN ILLINOIS...


CITY           SKY/WX    TMP DP  RH WIND       PRES   REMARKS
CHICAGO-OHARE  CLOUDY    40  35  83 W17G25    29.57R WCI  31
CHICAGO-MIDWAY CLOUDY    42  37  82 NW18G25   29.57R
MOLINE         CLOUDY    38  32  79 W20G35    29.75R WCI  28
ROCKFORD       LGT RAIN  39  35  86 NW14      29.64R WCI  31
PEORIA         CLOUDY    39  35  86 W25G36    29.77R WCI  28
$$

NOTE: "FAIR" INDICATES FEW OR NO CLOUDS BELOW 12,000 FEET WITH NO
SIGNIFICANT WEATHER AND/OR OBSTRUCTIONS TO VISIBILITY. WIND
SPEEDS ARE IN MILES-PER-HOUR.




USA.gov is the U.S. government's official web portal to all federal, state and local government web resources and services.